SAS1628 EKCH-EDDL

Flight info

Callsign SAS1628
Flight time N/A
Altitude 36000
Route NEXEN T503 GIMRU DCT MICOS DCT KEGAB DCT DENOL/N0379F260 T851 HALME HALME1A
Aircraft B738/M-SDFGHIRWXYZ/LB1

Departure

Time 2026-05-04 19:09
Airport Copenhagen Kastrup Airport (EKCH)

Arrival

Time N/A
Airport Düsseldorf Airport (EDDL)
Time Latitude Longitude Altitude Speed Heading
2026-05-04 18:43 55.62608 12.64895 23 ft 0 kts 92°
2026-05-04 18:43 55.62608 12.64891 23 ft 0 kts 91°
2026-05-04 18:59 55.62608 12.64892 23 ft 0 kts 91°
2026-05-04 19:00 55.62609 12.64869 23 ft 2 kts 91°
2026-05-04 19:00 55.62609 12.64840 23 ft 2 kts 93°
2026-05-04 19:01 55.62610 12.64821 23 ft 2 kts 108°
2026-05-04 19:01 55.62618 12.64797 24 ft 2 kts 164°
2026-05-04 19:01 55.62629 12.64795 23 ft 1 kts 189°
2026-05-04 19:01 55.62630 12.64795 23 ft 0 kts 190°
2026-05-04 19:03 55.62594 12.64784 23 ft 10 kts 187°
2026-05-04 19:03 55.62514 12.64775 23 ft 13 kts 180°
2026-05-04 19:03 55.62425 12.64781 23 ft 13 kts 178°
2026-05-04 19:03 55.62342 12.64749 27 ft 12 kts 224°
2026-05-04 19:04 55.62306 12.64626 24 ft 4 kts 246°
2026-05-04 19:04 55.62306 12.64625 23 ft 0 kts 246°
2026-05-04 19:05 55.62303 12.64613 24 ft 7 kts 246°
2026-05-04 19:05 55.62261 12.64453 22 ft 16 kts 239°
2026-05-04 19:05 55.62158 12.64311 23 ft 22 kts 207°
2026-05-04 19:06 55.62023 12.64198 26 ft 21 kts 205°
2026-05-04 19:06 55.61892 12.64089 24 ft 21 kts 202°
2026-05-04 19:06 55.61772 12.64083 23 ft 5 kts 175°
2026-05-04 19:06 55.61771 12.64083 23 ft 0 kts 175°
2026-05-04 19:08 55.61768 12.64084 26 ft 6 kts 175°
2026-05-04 19:08 55.61706 12.64093 26 ft 9 kts 175°
2026-05-04 19:08 55.61644 12.64086 26 ft 9 kts 195°
2026-05-04 19:08 55.61608 12.64041 26 ft 0 kts 223°
2026-05-04 19:09 55.61604 12.64035 26 ft 1 kts 223°
2026-05-04 19:09 55.61410 12.63737 26 ft 85 kts 221°
2026-05-04 19:09 55.60745 12.62713 106 ft 158 kts 221°
2026-05-04 19:09 55.59852 12.61539 1121 ft 158 kts 229°
2026-05-04 19:10 55.59028 12.60032 1934 ft 179 kts 228°
2026-05-04 19:10 55.58100 12.58552 2743 ft 184 kts 227°
2026-05-04 19:10 55.57107 12.57020 3453 ft 194 kts 227°
2026-05-04 19:10 55.55980 12.55543 3995 ft 209 kts 221°
2026-05-04 19:11 55.54762 12.54040 4528 ft 217 kts 221°
2026-05-04 19:11 55.53503 12.52492 5112 ft 225 kts 220°
2026-05-04 19:11 55.52167 12.50846 5401 ft 247 kts 220°
2026-05-04 19:11 55.50704 12.49046 5788 ft 264 kts 219°
2026-05-04 19:12 55.49171 12.47172 6561 ft 269 kts 219°
2026-05-04 19:12 55.46093 12.43421 8460 ft 271 kts 219°
2026-05-04 19:12 55.44535 12.41524 9303 ft 274 kts 219°
2026-05-04 19:13 55.43036 12.39700 10105 ft 277 kts 219°
2026-05-04 19:13 55.41470 12.37790 10647 ft 292 kts 219°
2026-05-04 19:13 55.39724 12.35659 10870 ft 317 kts 219°
2026-05-04 19:13 55.37843 12.33377 11085 ft 339 kts 218°
2026-05-04 19:14 55.35864 12.30989 11642 ft 349 kts 218°
2026-05-04 19:14 55.34128 12.28902 12452 ft 347 kts 218°
2026-05-04 19:14 55.32301 12.26701 13159 ft 350 kts 218°
2026-05-04 19:14 55.30318 12.24309 13839 ft 354 kts 218°
2026-05-04 19:15 55.28300 12.21874 14556 ft 357 kts 218°
2026-05-04 19:15 55.26195 12.19337 15301 ft 360 kts 218°
2026-05-04 19:15 55.24126 12.16843 16000 ft 362 kts 219°
2026-05-04 19:15 55.22038 12.14326 16650 ft 366 kts 219°
2026-05-04 19:16 55.19933 12.11791 17283 ft 369 kts 219°
2026-05-04 19:16 55.17843 12.09176 17958 ft 370 kts 220°
2026-05-04 19:16 55.15767 12.06498 18599 ft 372 kts 220°
2026-05-04 19:16 55.13686 12.03796 19165 ft 376 kts 221°
2026-05-04 19:17 55.11573 12.01060 19673 ft 380 kts 220°
2026-05-04 19:17 55.09433 11.98306 20202 ft 384 kts 220°
2026-05-04 19:17 55.07274 11.95540 20726 ft 387 kts 220°
2026-05-04 19:17 55.05171 11.92856 21232 ft 390 kts 220°
2026-05-04 19:18 55.03103 11.90226 21688 ft 393 kts 220°
2026-05-04 19:18 55.00918 11.87454 22162 ft 396 kts 220°
2026-05-04 19:18 54.99085 11.85129 22535 ft 399 kts 220°
2026-05-04 19:18 54.96855 11.82305 23002 ft 401 kts 220°
2026-05-04 19:19 54.94598 11.79451 23465 ft 404 kts 220°
2026-05-04 19:19 54.92397 11.76673 23875 ft 406 kts 220°
2026-05-04 19:19 54.90036 11.73699 24303 ft 409 kts 220°
2026-05-04 19:19 54.88164 11.71345 24639 ft 411 kts 220°
2026-05-04 19:20 54.85860 11.68452 25047 ft 413 kts 220°
2026-05-04 19:20 54.83537 11.65535 25474 ft 414 kts 220°
2026-05-04 19:20 54.81214 11.62617 25867 ft 416 kts 220°
2026-05-04 19:20 54.78890 11.59709 26222 ft 419 kts 220°
2026-05-04 19:21 54.76518 11.56746 26600 ft 420 kts 220°
2026-05-04 19:21 54.74147 11.53792 26940 ft 422 kts 220°
2026-05-04 19:21 54.74000 11.53609 26968 ft 422 kts 220°
2026-05-04 19:21 54.71877 11.50968 27286 ft 423 kts 220°
2026-05-04 19:22 54.69495 11.48016 27659 ft 424 kts 220°
2026-05-04 19:22 54.67096 11.45052 27946 ft 427 kts 220°
2026-05-04 19:22 54.64848 11.42277 28227 ft 428 kts 219°
2026-05-04 19:22 54.62428 11.39293 28581 ft 428 kts 220°
2026-05-04 19:23 54.59996 11.36295 28931 ft 428 kts 220°
2026-05-04 19:23 54.57638 11.33391 29331 ft 427 kts 219°
2026-05-04 19:23 54.56047 11.31434 29634 ft 425 kts 220°
2026-05-04 19:23 54.54686 11.29763 29917 ft 422 kts 220°
2026-05-04 19:24 54.52276 11.26799 30310 ft 421 kts 220°
2026-05-04 19:24 54.49915 11.23904 30636 ft 421 kts 220°
2026-05-04 19:24 54.47460 11.20901 30969 ft 421 kts 220°
2026-05-04 19:24 54.45070 11.17985 31309 ft 420 kts 220°
2026-05-04 19:25 54.42692 11.15094 31619 ft 420 kts 220°
2026-05-04 19:25 54.40304 11.12196 31884 ft 421 kts 220°
2026-05-04 19:25 54.38712 11.10269 32074 ft 421 kts 220°
2026-05-04 19:25 54.36882 11.08060 32342 ft 420 kts 220°
2026-05-04 19:26 54.34527 11.05213 32666 ft 419 kts 220°
2026-05-04 19:26 54.32118 11.02298 32941 ft 419 kts 220°
2026-05-04 19:26 54.30538 11.00385 33077 ft 420 kts 220°
2026-05-04 19:26 54.28833 10.98339 33233 ft 421 kts 220°
2026-05-04 19:27 54.26470 10.95523 33546 ft 420 kts 220°
2026-05-04 19:27 54.24115 10.92729 33847 ft 419 kts 220°
2026-05-04 19:27 54.21716 10.89891 34068 ft 420 kts 220°
2026-05-04 19:28 54.19358 10.87109 34334 ft 419 kts 220°
2026-05-04 19:28 54.17440 10.84849 34534 ft 419 kts 219°
2026-05-04 19:28 54.17410 10.84812 34537 ft 419 kts 219°